Theta_e
340 346 347 348 347 348 347 345 344 344 343 343 342 340 340 338 338 339 339 338 337 335 333 334 334 334 334 335 335 334 334 338 341 342 341 338 338 338 339 339 338 335 340
343 346 345 346 347 348 347 345 344 343 343 341 341 340 340 338 338 339 339 338 338 335 335 334 334 334 335 336 337 336 334 336 341 340 337 337 336 335 335 335 338 335 339
343 345 344 345 347 347 347 345 344 343 340 338 338 339 338 338 337 339 338 338 338 336 335 334 334 334 335 336 340 340 337 337 339 339 336 328 327 334 333 331 332 335 338
344 343 342 345 346 346 345 344 342 341 339 338 337 337 337 337 336 339 339 338 338 337 334 335 334 334 334 335 336 337 337 337 336 333 328 328 326 331 331 330 330 331 333
342 341 342 344 344 345 343 342 341 341 340 339 338 336 336 337 336 337 339 338 338 335 335 335 334 334 335 334 334 334 334 334 333 329 324 324 324 329 331 331 330 330 330
340 341 342 343 343 343 343 342 341 340 338 337 338 339 338 337 336 337 338 338 336 334 334 334 334 335 335 334 334 333 332 329 325 320 321 326 325 332 332 332 332 331 331
338 339 341 341 342 342 342 341 340 339 337 338 339 339 339 338 337 338 338 337 337 334 333 332 334 335 335 333 332 332 330 328 319 319 320 323 327 333 333 333 333 334 333
335 337 339 341 340 340 340 339 338 337 337 338 338 338 339 338 337 337 337 337 336 336 335 334 333 333 334 334 330 330 328 325 319 318 321 322 334 332 333 333 333 332 332
332 332 335 335 338 338 336 336 335 336 336 337 337 337 337 336 336 337 336 336 335 334 333 332 332 332 334 333 329 327 326 325 316 320 324 323 334 331 332 332 331 330 330
328 328 327 329 330 332 332 334 334 334 334 335 336 335 334 334 335 335 335 335 333 332 332 332 332 332 330 332 327 325 325 321 314 317 320 325 332 330 331 330 329 328 327
324 324 327 328 331 331 330 332 333 334 333 333 333 332 329 327 325 325 331 331 330 329 330 332 330 328 324 327 327 323 318 312 312 315 318 329 329 329 327 326 325 325 324
322 323 327 328 329 329 329 328 325 326 326 325 325 324 322 322 325 327 329 329 329 330 328 327 324 322 316 311 312 314 307 309 311 313 316 328 326 325 325 324 323 322 321
321 320 325 330 330 326 325 324 323 321 321 321 322 321 321 322 324 323 322 323 317 320 313 313 311 309 308 307 307 306 305 306 305 310 314 324 325 323 322 322 322 320 319
320 320 323 327 328 326 323 322 321 323 325 325 323 325 322 320 318 317 316 314 312 310 309 309 308 306 305 306 304 303 304 302 301 306 310 320 322 319 320 321 320 318 317
319 321 323 327 328 325 322 321 323 326 325 324 324 324 321 318 316 315 312 311 310 308 307 306 305 304 304 303 302 302 302 300 300 301 302 314 319 320 317 320 318 316 315
322 322 325 328 328 323 322 322 323 322 321 322 322 322 321 317 313 311 309 309 308 306 305 304 303 303 302 301 300 301 299 299 298 298 299 301 316 320 319 317 315 313 312
324 327 327 327 324 323 321 321 321 320 320 319 320 319 318 315 312 310 307 306 306 305 304 303 303 302 301 300 298 298 298 298 297 296 297 300 308 315 317 313 312 310 310
327 327 327 328 323 320 319 319 319 317 317 316 317 316 315 313 311 307 305 305 304 304 303 302 301 300 298 297 295 294 296 296 296 295 295 301 304 304 307 312 310 309 308
327 326 323 324 321 319 317 318 317 315 313 313 313 312 311 312 309 305 304 304 303 302 301 301 298 298 296 295 297 294 293 293 293 295 294 295 296 299 299 305 307 306 303
325 325 323 322 319 318 318 317 315 313 312 313 310 309 308 309 307 305 303 303 302 300 299 297 296 295 295 294 297 294 292 292 291 291 290 293 292 292 293 294 293 293 302
322 322 323 319 318 319 318 316 312 311 311 309 308 307 307 306 305 303 302 301 301 299 297 297 295 294 294 292 291 291 290 290 290 289 289 288 290 290 291 291 291 290 291
321 322 322 320 319 319 319 317 315 312 309 306 305 305 305 304 303 303 301 299 298 297 296 295 295 293 293 292 290 288 286 288 289 289 287 288 286 288 289 290 289 289 289
319 320 322 321 320 319 319 317 310 307 305 303 302 302 303 304 301 298 297 295 295 294 293 293 294 293 291 291 290 289 284 283 284 287 286 286 285 286 286 288 288 289 288
319 321 322 322 321 320 319 317 313 310 305 302 302 301 296 297 296 296 295 295 295 294 293 293 296 293 291 289 290 292 288 287 283 281 284 285 286 287 285 286 286 287 288
320 321 321 322 321 321 318 316 312 307 303 303 300 294 294 295 296 295 295 294 294 294 294 294 293 292 292 291 290 289 287 285 283 281 279 282 284 285 285 285 285 286 286
320 320 320 320 320 320 318 314 310 303 301 299 293 293 293 293 293 294 294 294 296 297 294 293 292 292 291 290 290 288 286 285 283 281 279 280 280 283 284 285 285 285 285
Wind_Speed
13 12 18 18 20 19 18 18 19 20 21 21 21 21 21 21 20 19 18 18 18 19 20 20 19 17 16 14 12 10 11 10 12 14 15 17 17 18 17 18 16 11 17
15 15 20 20 21 20 19 19 18 20 20 20 20 21 20 20 18 18 18 18 18 20 20 20 19 18 18 16 13 11 12 9 11 14 15 15 17 17 18 18 17 14 18
16 14 16 21 22 21 21 19 20 20 20 21 20 20 19 20 18 18 18 18 18 19 20 20 20 20 21 21 19 17 15 11 10 12 11 5 7 17 18 17 17 17 17
14 13 14 21 22 21 22 20 20 20 20 19 19 19 18 20 19 18 17 17 17 17 19 20 21 21 21 19 17 16 16 15 12 12 5 5 7 17 17 17 18 18 17
12 12 14 20 21 20 22 20 19 18 18 17 16 19 19 19 19 18 16 16 16 17 17 18 19 20 17 16 15 13 13 13 12 9 6 5 5 13 17 17 16 16 17
7 11 17 20 21 22 21 20 19 18 16 16 16 16 17 19 19 17 16 16 17 15 15 14 14 16 14 14 14 12 12 13 10 6 6 7 5 14 15 16 16 16 16
7 9 13 20 21 21 22 20 19 17 15 16 16 15 15 16 16 14 15 14 13 14 12 11 11 11 14 13 13 14 13 12 6 6 5 6 5 12 14 14 15 15 15
3 5 9 21 23 20 21 20 18 16 14 15 15 15 15 14 14 13 13 11 10 9 9 9 9 11 11 12 13 13 13 9 6 6 5 5 8 11 13 14 14 15 16
11 7 7 7 13 14 14 16 15 14 13 13 13 14 13 12 12 12 11 10 9 9 9 10 10 11 11 12 12 11 10 10 6 4 4 3 10 12 13 14 14 15 16
12 15 15 12 7 5 6 13 11 12 11 11 11 11 10 11 9 9 8 8 7 9 10 10 9 9 11 11 11 10 10 9 5 4 3 2 9 11 12 14 15 15 15
15 9 10 6 5 6 5 5 7 9 10 11 10 11 7 4 4 6 6 7 9 9 8 8 12 11 10 12 12 9 7 3 3 2 1 5 8 10 11 12 13 14 15
14 10 12 12 8 3 2 4 3 5 4 4 5 5 4 4 4 5 4 9 9 10 12 14 12 12 9 5 4 8 4 4 3 3 2 3 6 7 9 11 12 12 13
13 9 8 5 2 1 3 2 2 2 3 3 6 5 4 3 2 3 3 3 4 8 5 6 6 6 7 5 5 5 5 4 3 2 4 6 1 5 5 8 8 10 11
12 13 10 3 5 3 3 3 3 3 3 3 4 4 4 3 4 4 3 4 5 3 6 5 4 5 7 7 7 6 6 5 4 3 3 7 7 3 4 6 6 7 8
12 13 10 6 5 5 5 4 4 4 3 4 4 4 4 4 4 4 4 4 5 4 4 5 5 5 5 5 6 6 6 6 7 4 3 8 5 5 0 5 5 6 7
12 12 8 6 5 5 4 5 4 4 4 4 4 4 5 4 4 5 4 4 5 4 4 4 4 5 5 5 6 5 5 6 6 6 4 4 4 3 0 3 4 5 6
12 12 9 7 7 6 6 5 5 4 4 4 4 5 6 5 5 6 5 5 4 4 6 5 5 5 5 3 5 5 5 6 5 6 5 4 5 9 8 6 5 5 5
10 9 8 9 8 8 7 5 4 4 4 4 4 4 6 6 7 6 5 4 4 5 4 4 3 4 4 5 3 4 5 5 5 6 6 5 4 5 8 13 9 8 7
10 9 8 8 9 9 6 5 5 5 4 4 4 4 6 6 6 6 5 4 5 5 5 3 3 2 3 3 2 3 5 4 5 5 7 8 7 5 4 8 8 5 3
9 8 8 7 9 9 5 5 3 4 3 3 3 4 6 5 6 6 5 5 4 5 4 3 3 4 3 2 3 4 4 3 3 5 5 6 6 7 5 6 5 5 10
7 9 10 10 9 10 6 5 3 4 3 2 2 6 6 6 6 6 4 5 5 5 4 2 2 5 4 3 3 3 3 3 4 4 3 4 6 5 6 5 3 3 4
13 10 10 11 11 10 8 4 4 4 2 2 3 5 5 6 6 5 5 5 5 4 5 5 5 2 2 3 3 1 3 3 2 3 2 3 4 3 4 4 4 4 3
13 14 14 13 14 10 7 5 4 4 4 3 2 3 3 5 6 6 6 5 5 5 5 4 3 3 1 2 3 3 1 3 3 2 1 1 2 1 3 2 3 3 3
13 9 10 12 14 10 8 7 10 7 7 3 3 3 4 6 7 7 6 6 6 4 5 2 2 1 2 1 2 3 3 3 4 3 3 3 4 1 0 1 2 3 3
11 12 10 10 10 8 8 6 6 5 3 4 4 7 6 5 6 6 6 6 6 4 3 4 4 4 2 2 2 1 1 0 0 3 3 3 3 3 3 2 2 2 4
9 8 7 11 10 7 9 6 7 8 8 7 5 5 4 4 4 6 6 6 5 4 3 1 2 3 2 2 2 2 2 2 3 3 2 4 4 4 3 3 3 2 4
Wind_Direction
157 149 134 128 119 115 111 107 107 106 106 109 112 110 107 105 105 104 102 97 94 91 86 82 79 76 69 62 61 72 81 85 73 70 67 65 62 57 54 47 43 40 40
147 145 138 132 124 120 116 112 110 110 111 113 112 111 109 109 108 106 103 99 95 92 88 85 80 72 63 58 59 83 97 94 79 75 69 63 67 62 59 52 46 40 39
143 143 134 133 128 124 119 118 117 115 116 116 115 112 115 113 113 110 106 103 98 92 87 83 77 65 55 51 63 80 99 98 83 69 63 51 64 62 59 54 51 45 39
141 138 140 139 134 129 122 125 120 122 121 120 120 119 120 118 118 114 111 106 100 94 85 80 75 67 60 54 58 64 77 80 78 75 56 41 56 62 58 54 52 49 45
141 143 143 133 130 131 123 122 122 124 124 126 125 123 123 121 123 117 109 105 100 91 82 77 78 73 64 61 53 60 79 82 77 69 58 54 40 56 59 54 51 47 45
128 150 143 138 134 132 126 125 128 127 127 131 129 127 129 125 124 117 110 105 97 90 79 72 69 80 73 58 67 68 81 78 72 56 47 45 52 63 58 56 50 46 45
140 171 144 137 134 132 129 130 131 130 137 134 132 130 127 122 119 109 105 104 106 99 88 70 59 61 79 72 61 81 91 81 66 54 51 42 25 57 62 58 53 46 41
64 153 154 142 138 135 133 136 129 133 136 136 133 127 122 122 118 114 117 117 109 99 86 67 51 50 63 82 72 85 99 89 78 76 50 36 45 53 58 59 57 52 48
32 67 134 89 117 110 122 118 120 132 141 136 130 130 128 124 125 130 133 123 121 107 89 70 50 33 49 87 84 95 103 102 87 76 71 40 63 58 62 65 64 60 56
71 68 45 59 38 69 120 106 131 139 135 133 124 121 133 131 136 137 111 111 101 83 74 71 62 51 47 77 93 104 110 92 84 74 68 59 75 75 75 78 77 73 68
89 94 95 81 352 16 48 129 127 134 129 122 128 141 119 104 98 92 113 94 66 59 63 71 70 71 57 54 72 74 76 60 73 84 89 95 88 94 98 89 84 82 79
124 135 149 171 186 191 101 99 102 123 108 117 122 108 103 122 143 113 106 86 65 80 75 72 63 62 57 50 49 56 51 50 32 9 339 90 109 98 97 97 95 91 82
142 160 193 201 199 112 117 83 63 70 110 122 128 134 147 132 104 97 82 88 82 71 61 55 56 54 62 59 48 42 45 45 28 1 338 342 86 99 112 104 96 96 95
171 177 200 248 142 196 134 125 117 140 141 155 170 149 123 111 105 95 82 92 83 69 73 71 63 61 57 56 52 38 44 37 17 10 350 355 347 351 131 124 111 91 83
181 193 207 205 180 192 139 128 167 144 126 118 120 130 130 114 116 112 95 79 73 81 82 80 75 66 58 57 48 47 41 28 21 2 357 349 351 329 308 150 132 104 81
190 202 202 195 168 176 135 157 146 125 114 99 107 135 118 125 124 96 96 82 80 76 78 77 74 66 53 43 45 55 41 43 33 10 346 344 324 289 131 119 99 80 79
195 195 188 174 163 156 133 154 146 124 135 134 130 134 124 119 110 110 94 78 96 92 85 68 59 56 47 34 54 36 43 35 29 5 359 14 21 27 52 74 94 68 60
198 188 163 171 156 135 156 147 128 149 144 133 136 115 106 114 109 100 104 101 104 86 84 72 60 63 60 40 29 28 38 37 27 18 26 30 40 47 39 54 67 63 53
184 174 158 147 152 143 142 129 134 150 126 137 102 101 121 112 107 107 105 105 105 92 83 105 62 101 68 25 63 51 44 51 33 30 34 42 43 50 33 34 54 49 33
177 159 142 151 150 141 135 115 97 85 96 99 137 111 107 113 111 110 108 124 116 99 87 82 100 60 83 58 47 26 48 47 51 45 37 49 48 44 40 37 22 1 20
176 150 160 152 158 149 150 141 129 158 156 125 146 126 120 121 131 130 124 111 88 92 107 79 86 56 40 32 61 359 41 35 30 48 53 52 44 32 37 44 50 27 12
179 170 168 169 166 173 165 156 147 147 152 122 132 124 139 143 141 119 108 90 98 100 71 57 56 57 72 14 126 100 17 326 358 52 58 59 45 23 38 52 44 36 36
189 183 178 173 176 179 169 128 85 70 62 83 96 109 140 116 90 95 91 88 73 67 57 44 54 83 142 2 32 135 79 239 338 333 9 66 236 95 25 16 32 43 59
188 188 180 177 178 179 170 167 163 170 163 165 145 118 92 85 89 89 88 78 73 76 68 50 67 65 94 140 359 10 36 140 193 310 317 305 326 36 222 261 339 330 352
170 184 178 177 184 182 181 162 152 150 135 117 106 110 103 90 85 82 89 86 76 66 63 104 100 104 129 133 182 220 230 298 158 164 248 295 332 286 281 252 272 281 307
177 168 178 173 179 166 171 172 173 152 133 127 133 126 117 104 100 101 90 93 85 80 106 129 137 133 125 138 200 191 196 208 232 205 223 255 232 271 250 254 263 317 345